Location: Iesi
(43.5167°N, 13.2333°E)
Time: 18:50:51
(UTC+00:00)

SL-16 R/B - Pass Details

Date: 08 August 2020
Orbit: 843 x 845 km, 71.0° (Epoch: 23 September)

Event Time Altitude Azimuth Distance (km) Brightness Sun altitude
Rises 19:51:43 0° 345° (NNW) 3,415 6.3 -15.0°
Reaches altitude 10° 19:55:06 10° 5° (N) 2,476 5.1 -15.5°
Maximum altitude 19:58:44 17° 45° (NE) 2,019 4.1 -15.9°
Enters shadow 20:01:58 11° 82° (E) 2,385 4.2 -16.4°
